Weather History for Muscatine, IA

Change the Weather History Date:

Wednesday, October 16, 2013

  Actual Average Record
Temperature  
Mean Temperature 52 °F -  
Max Temperature 53 °F 66 °F 85 °F (1950)
Min Temperature 50 °F 42 °F 28 °F (1952)
Degree Days  
Heating Degree Days 14    
Growing Degree Days 2 (Base 50)    
Moisture  
Dew Point 44 °F    
Average Humidity 76    
Maximum Humidity 82    
Minimum Humidity 67    
Precipitation  
Precipitation 0.00 in - - ()
Sea Level Pressure  
Sea Level Pressure 29.95 in    
Wind  
Wind Speed 13 mph (West)    
Max Wind Speed 18 mph    
Max Gust Speed 26 mph    
Visibility 10 miles    
Events      
Averages and records for this station are not official NWS values.
T = Trace of Precipitation, MM = Missing Value Source: NWS Daily Summary

Daily Weather History Graph

Daily Weather History Graph

Search for Another Location

Airport:

Trip Planner

Search our weather history database for the weather conditions in past years. The results will help you decide how hot, cold, wet, or windy it might be!

Date:

Astronomy

Oct. 16, 2013 Rise Set
Actual Time 7:17 AM CDT 6:21 PM CDT
Civil Twilight 6:49 AM CDT 6:49 PM CDT
Nautical Twilight 6:17 AM CDT 7:21 PM CDT
Astronomical Twilight 5:45 AM CDT 7:53 PM CDT
Moon 5:02 PM CDT (10/16) 4:44 AM CDT (10/16)
Length of Visible Light 11h 59m
Length of Day
11h 03m
Waxing Gibbous, 94% of the Moon is Illuminated
Oct 16
Waxing Gibbous
Oct 18
Full
Oct 26
Last Quarter
Nov 3
New
Nov 9
First Quarter

Hourly Weather History & Observations

Time (CDT) Temp. Dew Point Humidity Pressure Visibility Wind Dir Wind Speed Gust Speed Precip Events Conditions
12:15 AM 51.8 °F 42.8 °F 71% 29.91 in 10.0 mi WSW 13.8 mph 23.0 mph N/A   Overcast
12:35 AM 51.8 °F 42.8 °F 71% 29.91 in 10.0 mi West 15.0 mph - N/A   Overcast
12:55 AM 51.8 °F 42.8 °F 71% 29.91 in 10.0 mi West 15.0 mph 23.0 mph N/A   Overcast
1:15 AM 51.8 °F 42.8 °F 71% 29.91 in 10.0 mi West 16.1 mph - N/A   Overcast
1:35 AM 51.8 °F 42.8 °F 71% 29.91 in 10.0 mi West 16.1 mph - N/A   Overcast
1:55 AM 51.8 °F 42.8 °F 71% 29.91 in 10.0 mi West 12.7 mph 23.0 mph N/A   Overcast
2:15 AM 51.8 °F 42.8 °F 71% 29.92 in 10.0 mi West 13.8 mph - N/A   Overcast
2:35 AM 51.8 °F 42.8 °F 71% 29.92 in 10.0 mi West 17.3 mph 26.5 mph N/A   Overcast
2:55 AM 51.8 °F 42.8 °F 71% 29.92 in 10.0 mi West 15.0 mph 21.9 mph N/A   Overcast
3:15 AM 50.0 °F 42.8 °F 76% 29.92 in 10.0 mi West 13.8 mph 21.9 mph N/A   Overcast
3:35 AM 50.0 °F 42.8 °F 76% 29.91 in 10.0 mi West 16.1 mph 24.2 mph N/A   Overcast
3:55 AM 50.0 °F 42.8 °F 76% 29.91 in 10.0 mi West 18.4 mph - N/A   Overcast
4:15 AM 50.0 °F 42.8 °F 76% 29.91 in 10.0 mi West 16.1 mph 23.0 mph N/A   Overcast
4:35 AM 50.0 °F 41.0 °F 71% 29.91 in 10.0 mi West 16.1 mph 25.3 mph N/A   Overcast
4:55 AM 50.0 °F 41.0 °F 71% 29.91 in 10.0 mi West 12.7 mph - N/A   Overcast
5:15 AM 50.0 °F 41.0 °F 71% 29.91 in 10.0 mi West 16.1 mph - N/A   Overcast
5:35 AM 50.0 °F 42.8 °F 76% 29.92 in 10.0 mi West 13.8 mph 21.9 mph N/A   Overcast
5:55 AM 50.0 °F 42.8 °F 76% 29.92 in 10.0 mi West 13.8 mph - N/A   Overcast
6:15 AM 50.0 °F 42.8 °F 76% 29.92 in 10.0 mi West 11.5 mph 19.6 mph N/A   Overcast
6:35 AM 50.0 °F 42.8 °F 76% 29.92 in 10.0 mi West 15.0 mph - N/A   Overcast
6:55 AM 50.0 °F 42.8 °F 76% 29.92 in 10.0 mi West 10.4 mph - N/A   Overcast
7:15 AM 50.0 °F 42.8 °F 76% 29.93 in 10.0 mi West 11.5 mph - N/A   Overcast
7:35 AM 50.0 °F 42.8 °F 76% 29.93 in 10.0 mi West 11.5 mph - N/A   Overcast
7:55 AM 50.0 °F 42.8 °F 76% 29.93 in 10.0 mi West 12.7 mph - N/A   Overcast
8:15 AM 50.0 °F 42.8 °F 76% 29.94 in 10.0 mi West 10.4 mph 17.3 mph N/A   Overcast
8:35 AM 50.0 °F 42.8 °F 76% 29.95 in 10.0 mi West 12.7 mph - N/A   Overcast
8:55 AM 50.0 °F 42.8 °F 76% 29.95 in 10.0 mi West 12.7 mph - N/A   Overcast
9:15 AM 50.0 °F 42.8 °F 76% 29.95 in 10.0 mi West 13.8 mph - N/A   Overcast
9:35 AM 50.0 °F 44.6 °F 82% 29.96 in 10.0 mi West 13.8 mph - N/A   Overcast
9:55 AM 50.0 °F 44.6 °F 82% 29.96 in 10.0 mi West 15.0 mph - N/A   Overcast
10:15 AM 50.0 °F 44.6 °F 82% 29.97 in 10.0 mi West 15.0 mph 20.7 mph N/A   Overcast
10:35 AM 50.0 °F 44.6 °F 82% 29.97 in 10.0 mi West 15.0 mph - N/A   Overcast
10:55 AM 50.0 °F 44.6 °F 82% 29.97 in 10.0 mi West 13.8 mph - N/A   Overcast
11:15 AM 50.0 °F 44.6 °F 82% 29.97 in 10.0 mi West 13.8 mph - N/A   Overcast
11:35 AM 50.0 °F 44.6 °F 82% 29.98 in 10.0 mi West 12.7 mph - N/A   Overcast
11:55 AM 51.8 °F 44.6 °F 76% 29.98 in 10.0 mi West 11.5 mph 17.3 mph N/A   Overcast
12:15 PM 51.8 °F 44.6 °F 76% 29.98 in 10.0 mi West 15.0 mph - N/A   Overcast
12:35 PM 51.8 °F 44.6 °F 76% 29.98 in 10.0 mi West 15.0 mph - N/A   Overcast
12:55 PM 53.6 °F 44.6 °F 72% 29.97 in 10.0 mi West 12.7 mph - N/A   Overcast
1:15 PM 51.8 °F 44.6 °F 76% 29.96 in 10.0 mi West 11.5 mph 17.3 mph N/A   Overcast
1:35 PM 51.8 °F 44.6 °F 76% 29.96 in 10.0 mi West 16.1 mph - N/A   Overcast
1:55 PM 53.6 °F 44.6 °F 72% 29.95 in 10.0 mi West 12.7 mph - N/A   Overcast
2:15 PM 53.6 °F 42.8 °F 67% 29.95 in 10.0 mi West 13.8 mph - N/A   Overcast
2:35 PM 51.8 °F 44.6 °F 76% 29.96 in 10.0 mi West 10.4 mph - N/A   Overcast
2:55 PM 51.8 °F 44.6 °F 76% 29.96 in 10.0 mi West 15.0 mph - N/A   Overcast
3:15 PM 53.6 °F 44.6 °F 72% 29.96 in 10.0 mi West 10.4 mph 16.1 mph N/A   Overcast
3:35 PM 53.6 °F 44.6 °F 72% 29.96 in 10.0 mi West 12.7 mph - N/A   Overcast
3:55 PM 53.6 °F 44.6 °F 72% 29.96 in 10.0 mi West 12.7 mph - N/A   Overcast
4:15 PM 53.6 °F 44.6 °F 72% 29.96 in 10.0 mi West 11.5 mph - N/A   Overcast
4:35 PM 51.8 °F 44.6 °F 76% 29.96 in 10.0 mi West 13.8 mph - N/A   Overcast
4:55 PM 51.8 °F 44.6 °F 76% 29.95 in 10.0 mi WNW 11.5 mph - N/A   Overcast
5:15 PM 51.8 °F 44.6 °F 76% 29.96 in 10.0 mi WNW 12.7 mph 20.7 mph N/A   Overcast
5:35 PM 51.8 °F 44.6 °F 76% 29.95 in 9.0 mi WNW 11.5 mph - N/A   Overcast
5:55 PM 50.0 °F 44.6 °F 82% 29.96 in 10.0 mi West 9.2 mph - N/A   Overcast
6:15 PM 50.0 °F 44.6 °F 82% 29.96 in 10.0 mi West 8.1 mph - N/A   Mostly Cloudy
6:35 PM 51.8 °F 44.6 °F 76% 29.97 in 10.0 mi West 5.8 mph - N/A   Mostly Cloudy
6:55 PM 51.8 °F 44.6 °F 76% 29.97 in 10.0 mi West 6.9 mph - N/A   Overcast
7:15 PM 51.8 °F 44.6 °F 76% 29.97 in 10.0 mi West 4.6 mph - N/A   Overcast
7:35 PM 50.0 °F 44.6 °F 82% 29.98 in 10.0 mi West 5.8 mph - N/A   Overcast
7:55 PM 51.8 °F 44.6 °F 76% 29.98 in 10.0 mi West 6.9 mph - N/A   Overcast
8:35 PM 50.0 °F 44.6 °F 82% 29.99 in 10.0 mi West 6.9 mph - N/A   Overcast
8:55 PM 50.0 °F 44.6 °F 82% 29.99 in 10.0 mi WNW 5.8 mph - N/A   Overcast
9:15 PM 50.0 °F 44.6 °F 82% 30.00 in 10.0 mi WNW 5.8 mph - N/A   Overcast
9:35 PM 50.0 °F 44.6 °F 82% 29.99 in 10.0 mi WNW 5.8 mph - N/A   Overcast
9:55 PM 50.0 °F 44.6 °F 82% 29.99 in 10.0 mi WNW 4.6 mph - N/A   Overcast
10:15 PM 50.0 °F 44.6 °F 82% 29.99 in 10.0 mi WNW 4.6 mph - N/A   Overcast
10:35 PM 50.0 °F 44.6 °F 82% 29.98 in 10.0 mi West 4.6 mph - N/A   Overcast
10:55 PM 50.0 °F 44.6 °F 82% 29.98 in 10.0 mi WSW 3.5 mph - N/A   Overcast
11:15 PM 50.0 °F 44.6 °F 82% 29.98 in 10.0 mi West 4.6 mph - N/A   Overcast
11:35 PM 50.0 °F 44.6 °F 82% 29.98 in 10.0 mi SW 4.6 mph - N/A   Overcast
11:55 PM 50.0 °F 44.6 °F 82% 29.97 in 10.0 mi SW 4.6 mph - N/A   Overcast